When you browse on this site, cookies collect data to enhance your experience and personalize the content and advertising you see.
Visit our Privacy Policy to learn more. By continuing to use the site, you agree to this use of cookies and data.
  • In Denmark
  • List of Countries
  • For 7 days
  • Water Temperature
  • Satellite Maps
  • Weather Map
  • Weather Widgets
  • user-avatar
    Login

    Hourly Weather Kleschevka

    Today, 18 November, Sunday

    Time Temperature Precipitation Wind Pressure Humidity
    00:00 -2°C° 0 mm 3 mps 770 mmHg 28%
    01:00 -2°C° 0 mm 3 mps 769 mmHg 28%
    02:00 -2°C° 0 mm 3 mps 769 mmHg 28%
    03:00 -4°C° 0 mm 3 mps 768 mmHg 28%
    04:00 -4°C° 0 mm 3 mps 768 mmHg 28%
    05:00 -4°C° 0 mm 3 mps 767 mmHg 28%
    06:00 -4°C° 0 mm 3 mps 767 mmHg 28%
    07:00 -4°C° 0 mm 3 mps 767 mmHg 27%
    08:00 -2°C° 0 mm 3 mps 767 mmHg 26%
    09:00 -2°C° 0 mm 3 mps 767 mmHg 25%
    10:00 -1°C° 0 mm 3 mps 767 mmHg 24%
    11:00 0°C° 0 mm 3 mps 766 mmHg 22%
    12:00 +1°C° 0 mm 3 mps 766 mmHg 20%
    13:00 +1°C° 0 mm 3 mps 766 mmHg 22%
    14:00 +2°C° 0 mm 2 mps 766 mmHg 23%
    15:00 +1°C° 0 mm 2 mps 766 mmHg 25%
    16:00 +1°C° 0 mm 2 mps 766 mmHg 26%
    17:00 -1°C° 0 mm 2 mps 767 mmHg 27%
    18:00 -2°C° 0 mm 2 mps 767 mmHg 28%
    19:00 -2°C° 0 mm 2 mps 767 mmHg 29%
    20:00 -2°C° 0 mm 2 mps 767 mmHg 29%
    21:00 -2°C° 0 mm 2 mps 767 mmHg 29%
    22:00 -2°C° 0 mm 2 mps 767 mmHg 30%
    23:00 -3°C° 0 mm 2 mps 767 mmHg 30%

    Tomorrow, 19 November, Monday

    Time Temperature Precipitation Wind Pressure Humidity
    00:00 -3°C° 0 mm 2 mps 767 mmHg 30%
    01:00 -1°C° 0 mm 1 mps 767 mmHg 31%
    02:00 -1°C° 0 mm 1 mps 768 mmHg 32%
    03:00 -1°C° 0 mm 1 mps 768 mmHg 32%
    04:00 -1°C° 0 mm 1 mps 768 mmHg 33%
    05:00 -2°C° 0 mm 1 mps 768 mmHg 33%
    06:00 -2°C° 0 mm 1 mps 768 mmHg 34%
    07:00 -1°C° 0 mm 1 mps 768 mmHg 33%
    08:00 -1°C° 0 mm 1 mps 769 mmHg 33%
    09:00 -1°C° 0 mm 1 mps 769 mmHg 32%
    10:00 0°C° 0 mm 1 mps 769 mmHg 31%
    11:00 +1°C° 0 mm 1 mps 769 mmHg 29%
    12:00 +2°C° 0 mm 1 mps 769 mmHg 28%
    13:00 +2°C° 0 mm 1 mps 769 mmHg 30%
    14:00 +2°C° 0 mm 1 mps 769 mmHg 32%
    15:00 +2°C° 0 mm 1 mps 769 mmHg 34%
    16:00 +1°C° 0 mm 1 mps 769 mmHg 37%
    17:00 0°C° 0 mm 1 mps 769 mmHg 41%
    18:00 0°C° 0 mm 1 mps 769 mmHg 44%
    19:00 0°C° 0 mm 1 mps 769 mmHg 49%
    20:00 0°C° 0 mm 1 mps 769 mmHg 54%
    21:00 0°C° 0 mm 1 mps 769 mmHg 58%
    22:00 0°C° 0 mm 1 mps 769 mmHg 63%
    23:00 -1°C° 0 mm 1 mps 769 mmHg 68%

    Day after tomorrow, 20 November, Tuesday

    Time Temperature Precipitation Wind Pressure Humidity
    00:00 -1°C° 0 mm 1 mps 769 mmHg 74%
    01:00 -1°C° 0 mm 1 mps 769 mmHg 78%
    02:00 -1°C° 0 mm 1 mps 769 mmHg 82%
    03:00 -3°C° 0 mm 2 mps 769 mmHg 86%
    04:00 -1°C° 0 mm 1 mps 769 mmHg 88%
    05:00 -1°C° 0 mm 1 mps 769 mmHg 90%
    06:00 -1°C° 0 mm 1 mps 769 mmHg 92%
    07:00 -1°C° 0 mm 1 mps 769 mmHg 91%
    08:00 -3°C° 0 mm 2 mps 769 mmHg 90%
    09:00 -2°C° 0 mm 2 mps 769 mmHg 89%
    10:00 -1°C° 0 mm 2 mps 769 mmHg 85%
    11:00 -1°C° 0 mm 2 mps 768 mmHg 80%
    12:00 +1°C° 0 mm 2 mps 768 mmHg 75%
    13:00 +1°C° 0 mm 2 mps 768 mmHg 75%
    14:00 +2°C° 0 mm 1 mps 768 mmHg 75%
    15:00 +2°C° 0 mm 1 mps 767 mmHg 75%
    16:00 +1°C° 0 mm 1 mps 767 mmHg 76%
    17:00 +1°C° 0 mm 1 mps 767 mmHg 77%
    18:00 +1°C° 0 mm 1 mps 767 mmHg 79%
    19:00 +1°C° 0 mm 1 mps 767 mmHg 79%
    20:00 0°C° 0 mm 1 mps 767 mmHg 80%
    21:00 0°C° 0 mm 1 mps 767 mmHg 81%
    22:00 0°C° 0 mm 1 mps 767 mmHg 81%
    23:00 0°C° 0 mm 1 mps 766 mmHg 81%

    21 November, Wednesday

    Time Temperature Precipitation Wind Pressure Humidity
    00:00 0°C° 0 mm 1 mps 766 mmHg 81%
    01:00 0°C° 0 mm 1 mps 766 mmHg 82%
    02:00 0°C° 0 mm 1 mps 766 mmHg 82%
    03:00 -3°C° 0 mm 2 mps 766 mmHg 82%
    04:00 -3°C° 0 mm 2 mps 765 mmHg 82%
    05:00 -3°C° 0 mm 2 mps 765 mmHg 81%
    06:00 -3°C° 0 mm 2 mps 765 mmHg 80%
    07:00 -2°C° 0 mm 2 mps 765 mmHg 79%
    08:00 -2°C° 0 mm 3 mps 765 mmHg 77%
    09:00 -2°C° 0 mm 3 mps 764 mmHg 76%
    10:00 -2°C° 0 mm 3 mps 764 mmHg 73%
    11:00 -2°C° 0 mm 4 mps 764 mmHg 70%
    12:00 -2°C° 0 mm 4 mps 763 mmHg 67%
    13:00 -2°C° 0 mm 4 mps 763 mmHg 67%
    14:00 -2°C° 0 mm 4 mps 763 mmHg 67%
    15:00 -2°C° 0 mm 5 mps 763 mmHg 67%
    16:00 -3°C° 0 mm 4 mps 762 mmHg 69%
    17:00 -3°C° 0 mm 4 mps 762 mmHg 71%
    18:00 -4°C° 0 mm 4 mps 762 mmHg 74%
    19:00 -4°C° 0 mm 4 mps 762 mmHg 75%
    20:00 -4°C° 0 mm 4 mps 762 mmHg 75%
    21:00 -4°C° 0 mm 3 mps 762 mmHg 76%
    22:00 -4°C° 0 mm 3 mps 762 mmHg 78%
    23:00 -4°C° 0 mm 3 mps 762 mmHg 80%

    22 November, Thursday

    Time Temperature Precipitation Wind Pressure Humidity
    00:00 -4°C° 0 mm 3 mps 762 mmHg 81%
    01:00 -5°C° 0 mm 3 mps 762 mmHg 83%
    02:00 -5°C° 0 mm 3 mps 762 mmHg 84%
    03:00 -5°C° 0 mm 3 mps 762 mmHg 86%
    04:00 -5°C° 0 mm 3 mps 762 mmHg 87%
    05:00 -5°C° 0 mm 3 mps 761 mmHg 87%
    06:00 -6°C° 0 mm 3 mps 761 mmHg 88%
    07:00 -5°C° 0 mm 3 mps 761 mmHg 85%
    08:00 -5°C° 0 mm 3 mps 761 mmHg 82%
    09:00 -5°C° 0 mm 3 mps 761 mmHg 78%
    10:00 -4°C° 0 mm 4 mps 761 mmHg 73%
    11:00 -3°C° 0 mm 4 mps 760 mmHg 68%
    12:00 -4°C° 0 mm 5 mps 760 mmHg 62%
    13:00 -4°C° 0 mm 5 mps 759 mmHg 60%
    14:00 -4°C° 0 mm 5 mps 758 mmHg 59%
    15:00 -4°C° 0 mm 6 mps 758 mmHg 57%
    16:00 -4°C° 0 mm 6 mps 757 mmHg 59%
    17:00 -4°C° 0 mm 6 mps 757 mmHg 61%
    18:00 -5°C° 0 mm 6 mps 757 mmHg 64%
    19:00 -6°C° 0 mm 7 mps 756 mmHg 65%
    20:00 -4°C° 0 mm 7 mps 756 mmHg 67%
    21:00 -4°C° 0 mm 7 mps 756 mmHg 69%
    22:00 -4°C° 0 mm 7 mps 756 mmHg 71%
    23:00 -4°C° 0 mm 7 mps 756 mmHg 72%

    23 November, Friday

    Time Temperature Precipitation Wind Pressure Humidity
    00:00 -4°C° 0 mm 7 mps 756 mmHg 73%
    01:00 -4°C° 0 mm 7 mps 756 mmHg 69%
    02:00 -6°C° 0 mm 7 mps 757 mmHg 65%
    03:00 -6°C° 0 mm 7 mps 757 mmHg 61%
    04:00 -6°C° 0 mm 6 mps 758 mmHg 61%
    05:00 -6°C° 0 mm 6 mps 759 mmHg 62%
    06:00 -8°C° 0 mm 6 mps 760 mmHg 63%
    07:00 -8°C° 0 mm 6 mps 760 mmHg 60%
    08:00 -8°C° 0 mm 6 mps 761 mmHg 58%
    09:00 -8°C° 0 mm 6 mps 762 mmHg 55%
    10:00 -6°C° 0 mm 6 mps 762 mmHg 53%
    11:00 -5°C° 0 mm 6 mps 763 mmHg 50%
    12:00 -5°C° 0 mm 6 mps 763 mmHg 48%
    13:00 -5°C° 0 mm 6 mps 763 mmHg 48%
    14:00 -4°C° 0 mm 6 mps 763 mmHg 48%
    15:00 -4°C° 0 mm 5 mps 763 mmHg 48%
    16:00 -5°C° 0 mm 5 mps 764 mmHg 52%
    17:00 -5°C° 0 mm 5 mps 764 mmHg 56%
    18:00 -5°C° 0 mm 5 mps 764 mmHg 59%
    19:00 -5°C° 0 mm 5 mps 764 mmHg 65%
    20:00 -5°C° 0 mm 5 mps 764 mmHg 71%
    21:00 -5°C° 0 mm 5 mps 765 mmHg 77%
    22:00 -5°C° 0 mm 5 mps 765 mmHg 80%
    23:00 -6°C° 0 mm 5 mps 765 mmHg 83%
    Show more